�������l�o���
Date,Time,MP-1(��Sv/h),MP-2(��Sv/h),MP-3(��Sv/h),MP-4(��Sv/h),MP-5(��Sv/h),MP-6(��Sv/h),MP-7(��Sv/h),����,����(m/s),���J
2016/09/15,00:00,0.384,0.232,0.399,0.367,0.357,0.188,0.160,-,CALM,��
2016/09/15,00:10,0.382,0.230,0.405,0.372,0.359,0.187,0.159,-,CALM,��
2016/09/15,00:20,0.378,0.233,0.403,0.369,0.360,0.188,0.159,�쐼,1.3,��
2016/09/15,00:30,0.384,0.232,0.400,0.367,0.357,0.188,0.161,-,CALM,��
2016/09/15,00:40,0.382,0.230,0.405,0.371,0.362,0.187,0.158,-,CALM,��
2016/09/15,00:50,0.381,0.232,0.402,0.371,0.360,0.187,0.159,-,CALM,��
2016/09/15,01:00,0.383,0.230,0.399,0.368,0.357,0.188,0.160,���쐼,0.5,��
2016/09/15,01:10,0.383,0.232,0.403,0.370,0.362,0.187,0.158,��쐼,0.5,��
2016/09/15,01:20,0.380,0.231,0.402,0.369,0.360,0.189,0.159,���쐼,1.2,��
2016/09/15,01:30,0.384,0.230,0.399,0.369,0.356,0.188,0.160,-,CALM,��
2016/09/15,01:40,0.383,0.232,0.403,0.371,0.361,0.188,0.158,-,CALM,��
2016/09/15,01:50,0.382,0.232,0.404,0.368,0.359,0.188,0.161,���쐼,0.7,��
2016/09/15,02:00,0.384,0.231,0.400,0.370,0.360,0.188,0.159,���쐼,1.0,��
2016/09/15,02:10,0.382,0.233,0.405,0.370,0.361,0.188,0.158,�쐼,1.0,��
2016/09/15,02:20,0.382,0.232,0.402,0.368,0.359,0.188,0.160,�쐼,0.8,��
2016/09/15,02:30,0.384,0.230,0.401,0.372,0.359,0.188,0.159,-,CALM,��
2016/09/15,02:40,0.381,0.234,0.405,0.369,0.360,0.189,0.159,-,CALM,��
2016/09/15,02:50,0.384,0.231,0.402,0.367,0.357,0.188,0.161,-,CALM,��
2016/09/15,03:00,0.383,0.233,0.402,0.372,0.361,0.188,0.160,-,CALM,��
2016/09/15,03:10,0.382,0.233,0.406,0.371,0.361,0.188,0.159,-,CALM,��
2016/09/15,03:20,0.386,0.232,0.403,0.370,0.360,0.189,0.161,��,1.0,��
2016/09/15,03:30,0.385,0.234,0.403,0.372,0.363,0.189,0.160,���쐼,0.7,��
2016/09/15,03:40,0.383,0.232,0.406,0.369,0.360,0.189,0.162,��,0.6,��
2016/09/15,03:50,0.385,0.233,0.402,0.371,0.359,0.188,0.161,-,CALM,��
2016/09/15,04:00,0.382,0.234,0.404,0.372,0.362,0.190,0.159,-,CALM,��
2016/09/15,04:10,0.383,0.232,0.405,0.368,0.359,0.189,0.161,-,CALM,��
2016/09/15,04:20,0.385,0.233,0.401,0.373,0.361,0.189,0.160,���k��,0.7,��
2016/09/15,04:30,0.382,0.233,0.407,0.371,0.362,0.190,0.161,-,CALM,��
2016/09/15,04:40,0.385,0.232,0.404,0.370,0.357,0.191,0.160,�k�k��,1.0,��
2016/09/15,04:50,0.383,0.234,0.402,0.373,0.363,0.189,0.160,�k�k��,2.2,��
2016/09/15,05:00,0.382,0.232,0.405,0.369,0.360,0.190,0.161,�k��,2.5,��
2016/09/15,05:10,0.385,0.233,0.403,0.370,0.358,0.188,0.160,�k�k��,1.0,��
2016/09/15,05:20,0.383,0.233,0.403,0.370,0.361,0.189,0.160,�k,1.4,��
2016/09/15,05:30,0.383,0.231,0.402,0.368,0.356,0.188,0.160,�k�k��,2.0,��
2016/09/15,05:40,0.385,0.233,0.402,0.371,0.362,0.189,0.159,�k,2.8,��
2016/09/15,05:50,0.381,0.232,0.405,0.369,0.359,0.188,0.160,�k,3.2,��
2016/09/15,06:00,0.385,0.232,0.403,0.370,0.359,0.188,0.159,�k,3.7,��
2016/09/15,06:10,0.382,0.232,0.403,0.372,0.364,0.190,0.159,�k,4.6,��
2016/09/15,06:20,0.383,0.231,0.404,0.368,0.359,0.188,0.161,�k,5.4,��
2016/09/15,06:30,0.385,0.233,0.402,0.371,0.361,0.188,0.159,�k�k��,4.5,��
2016/09/15,06:40,0.382,0.231,0.404,0.370,0.361,0.189,0.161,�k�k��,3.0,�L
2016/09/15,06:50,0.384,0.232,0.403,0.368,0.357,0.189,0.159,�k�k��,4.2,��
2016/09/15,07:00,0.383,0.234,0.400,0.371,0.361,0.189,0.160,�k,4.8,�L
2016/09/15,07:10,0.380,0.231,0.405,0.369,0.359,0.189,0.160,�k�k��,4.9,�L
2016/09/15,07:20,0.386,0.232,0.403,0.370,0.359,0.188,0.160,�k�k��,4.1,�L
2016/09/15,07:30,0.382,0.232,0.403,0.370,0.362,0.189,0.162,�k�k��,4.8,�L
2016/09/15,07:40,0.382,0.231,0.405,0.368,0.358,0.189,0.161,�k�k��,4.2,�L
2016/09/15,07:50,0.386,0.233,0.403,0.372,0.359,0.187,0.160,�k,4.4,��
2016/09/15,08:00,0.383,0.233,0.403,0.371,0.362,0.189,0.162,�k,4.6,��
2016/09/15,08:10,0.382,0.231,0.404,0.368,0.358,0.189,0.161,�k,3.3,��
2016/09/15,08:20,0.384,0.233,0.401,0.371,0.358,0.189,0.160,�k,2.5,��
2016/09/15,08:30,0.382,0.232,0.402,0.370,0.362,0.190,0.162,�k,3.7,��
2016/09/15,08:40,0.380,0.230,0.406,0.368,0.360,0.190,0.161,�k,4.1,��
2016/09/15,08:50,0.386,0.232,0.404,0.370,0.357,0.188,0.159,�k,3.6,��
2016/09/15,09:00,0.384,0.233,0.399,0.372,0.359,0.189,0.160,�k,3.4,��
2016/09/15,09:10,0.381,0.231,0.403,0.370,0.361,0.189,0.160,�k,3.1,��
2016/09/15,09:20,0.379,0.231,0.405,0.369,0.360,0.188,0.160,�k,2.4,��
2016/09/15,09:30,0.385,0.230,0.403,0.367,0.358,0.189,0.161,�k,2.2,��
2016/09/15,09:40,0.385,0.232,0.399,0.372,0.355,0.188,0.160,�k,1.6,��
2016/09/15,09:50,0.384,0.234,0.403,0.369,0.356,0.189,0.158,�k�k��,1.4,��
2016/09/15,10:00,0.380,0.233,0.404,0.369,0.361,0.189,0.158,�k��,1.5,��
2016/09/15,10:10,0.380,0.232,0.403,0.366,0.363,0.188,0.160,�k��,1.6,��
2016/09/15,10:20,0.384,0.231,0.400,0.366,0.360,0.187,0.160,�k�k��,1.3,��
2016/09/15,10:30,0.386,0.230,0.400,0.366,0.358,0.190,0.160,�k�k��,1.6,��
2016/09/15,10:40,0.384,0.230,0.404,0.366,0.357,0.188,0.159,�k��,1.8,��
2016/09/15,10:50,0.382,0.230,0.407,0.372,0.356,0.189,0.160,�k��,2.8,��
2016/09/15,11:00,0.379,0.230,0.404,0.374,0.358,0.189,0.160,�k��,2.8,��
2016/09/15,11:10,0.382,0.230,0.403,0.371,0.359,0.189,0.159,���k��,3.3,��
2016/09/15,11:20,0.380,0.232,0.401,0.372,0.358,0.190,0.159,�k��,3.1,��
2016/09/15,11:30,0.381,0.231,0.401,0.371,0.359,0.190,0.160,�k��,3.1,��
2016/09/15,11:40,0.381,0.232,0.401,0.371,0.360,0.189,0.160,�k��,3.5,��
2016/09/15,11:50,0.381,0.233,0.401,0.371,0.362,0.190,0.160,�k��,3.8,��
2016/09/15,12:00,0.382,0.232,0.402,0.371,0.360,0.189,0.161,�k��,4.7,��
2016/09/15,12:10,0.381,0.233,0.401,0.371,0.360,0.191,0.160,�k��,5.0,��
2016/09/15,12:20,0.381,0.232,0.402,0.371,0.359,0.190,0.160,�k��,4.4,��
2016/09/15,12:30,0.383,0.231,0.403,0.370,0.360,0.189,0.160,�k��,5.1,��
2016/09/15,12:40,0.388,0.231,0.402,0.369,0.358,0.191,0.160,�k��,5.0,��
2016/09/15,12:50,0.387,0.232,0.402,0.369,0.359,0.190,0.159,�k�k��,5.0,��
2016/09/15,13:00,0.383,0.232,0.402,0.370,0.359,0.190,0.160,�k��,4.3,��
2016/09/15,13:10,0.381,0.231,0.401,0.370,0.359,0.190,0.160,�k�k��,3.6,��
2016/09/15,13:20,0.382,0.233,0.400,0.368,0.357,0.191,0.159,�k�k��,4.7,��
2016/09/15,13:30,0.388,0.233,0.400,0.369,0.359,0.189,0.158,�k�k��,5.3,��
2016/09/15,13:40,0.386,0.234,0.400,0.368,0.363,0.189,0.159,�k�k��,3.8,��
2016/09/15,13:50,0.384,0.232,0.402,0.370,0.363,0.190,0.159,�k��,3.3,��
2016/09/15,14:00,0.382,0.231,0.407,0.374,0.360,0.189,0.159,�k�k��,3.3,��
2016/09/15,14:10,0.382,0.232,0.407,0.374,0.361,0.190,0.159,�k��,2.8,��
2016/09/15,14:20,0.386,0.230,0.405,0.372,0.359,0.190,0.161,���k��,2.8,��
2016/09/15,14:30,0.389,0.230,0.402,0.369,0.358,0.189,0.162,�k��,2.8,��
2016/09/15,14:40,0.385,0.232,0.402,0.368,0.360,0.190,0.161,���k��,2.5,��
2016/09/15,14:50,0.382,0.234,0.400,0.369,0.358,0.191,0.160,���k��,1.9,��
2016/09/15,15:00,0.382,0.234,0.400,0.374,0.358,0.191,0.159,��,1.9,��
2016/09/15,15:10,0.388,0.232,0.406,0.372,0.363,0.191,0.161,���k��,1.9,��
2016/09/15,15:20,0.385,0.231,0.407,0.371,0.363,0.190,0.161,��,1.3,��
2016/09/15,15:30,0.381,0.231,0.406,0.370,0.362,0.191,0.161,���k��,1.1,��
2016/09/15,15:40,0.384,0.234,0.402,0.372,0.360,0.188,0.160,��,1.1,��
2016/09/15,15:50,0.386,0.233,0.402,0.376,0.358,0.190,0.159,���쓌,1.3,��
2016/09/15,16:00,0.387,0.232,0.407,0.373,0.359,0.191,0.161,��,0.9,��
2016/09/15,16:10,0.382,0.232,0.408,0.370,0.364,0.189,0.161,���k��,1.3,��
2016/09/15,16:20,0.382,0.233,0.403,0.370,0.363,0.189,0.160,��,1.0,��
2016/09/15,16:30,0.386,0.234,0.402,0.376,0.359,0.189,0.160,���쓌,1.3,��
2016/09/15,16:40,0.388,0.231,0.407,0.372,0.358,0.191,0.161,���쓌,1.2,��
2016/09/15,16:50,0.382,0.233,0.408,0.370,0.357,0.190,0.161,���쓌,1.0,��
2016/09/15,17:00,0.384,0.232,0.403,0.372,0.359,0.189,0.159,���쓌,0.8,��
2016/09/15,17:10,0.388,0.231,0.403,0.374,0.364,0.189,0.161,��,0.8,��
2016/09/15,17:20,0.385,0.233,0.407,0.372,0.361,0.191,0.161,��,0.7,��
2016/09/15,17:30,0.384,0.233,0.406,0.369,0.359,0.188,0.159,���k��,1.1,��
2016/09/15,17:40,0.387,0.233,0.403,0.375,0.364,0.189,0.161,���k��,1.3,��
2016/09/15,17:50,0.384,0.233,0.408,0.372,0.363,0.189,0.160,��,0.9,��
2016/09/15,18:00,0.383,0.232,0.405,0.371,0.359,0.189,0.160,��,1.6,��
2016/09/15,18:10,0.386,0.232,0.403,0.375,0.364,0.190,0.162,���k��,2.0,��
2016/09/15,18:20,0.384,0.233,0.407,0.372,0.362,0.189,0.161,��,1.8,��
2016/09/15,18:30,0.382,0.233,0.406,0.370,0.358,0.187,0.160,���k��,1.5,��
2016/09/15,18:40,0.386,0.231,0.402,0.373,0.361,0.190,0.162,���k��,1.3,��
2016/09/15,18:50,0.385,0.233,0.406,0.373,0.362,0.190,0.161,���k��,1.1,��
2016/09/15,19:00,0.382,0.233,0.406,0.370,0.358,0.188,0.160,���k��,0.8,��
2016/09/15,19:10,0.386,0.232,0.404,0.373,0.361,0.190,0.161,��,0.8,��
2016/09/15,19:20,0.385,0.234,0.406,0.372,0.364,0.190,0.162,��,0.7,��
2016/09/15,19:30,0.382,0.232,0.407,0.369,0.361,0.189,0.159,��쓌,0.5,��
2016/09/15,19:40,0.386,0.234,0.404,0.374,0.360,0.190,0.162,-,CALM,��
2016/09/15,19:50,0.385,0.233,0.408,0.372,0.363,0.188,0.160,-,CALM,��
2016/09/15,20:00,0.383,0.232,0.405,0.371,0.359,0.189,0.161,-,CALM,��
2016/09/15,20:10,0.387,0.234,0.403,0.373,0.360,0.190,0.162,-,CALM,��
2016/09/15,20:20,0.385,0.233,0.407,0.372,0.362,0.189,0.160,-,CALM,��
2016/09/15,20:30,0.385,0.233,0.405,0.373,0.359,0.190,0.162,-,CALM,��
2016/09/15,20:40,0.387,0.234,0.403,0.374,0.363,0.189,0.161,-,CALM,��
2016/09/15,20:50,0.383,0.232,0.407,0.371,0.361,0.190,0.161,-,CALM,��
2016/09/15,21:00,0.385,0.234,0.405,0.375,0.359,0.189,0.161,��,0.8,��
2016/09/15,21:10,0.385,0.231,0.406,0.373,0.362,0.189,0.161,-,CALM,��
2016/09/15,21:20,0.384,0.232,0.406,0.370,0.359,0.190,0.161,-,CALM,��
2016/09/15,21:30,0.388,0.234,0.403,0.374,0.362,0.189,0.162,���k��,0.7,��
2016/09/15,21:40,0.385,0.232,0.408,0.371,0.362,0.190,0.162,�k��,1.0,��
2016/09/15,21:50,0.385,0.233,0.406,0.373,0.360,0.190,0.161,�k��,1.3,��
2016/09/15,22:00,0.388,0.232,0.404,0.373,0.364,0.190,0.161,�k��,1.1,��
2016/09/15,22:10,0.383,0.232,0.407,0.371,0.360,0.190,0.162,�k��,1.0,��
2016/09/15,22:20,0.386,0.234,0.403,0.374,0.360,0.189,0.160,�k��,0.7,��
2016/09/15,22:30,0.384,0.232,0.405,0.371,0.361,0.190,0.161,�k�k��,1.3,��
2016/09/15,22:40,0.385,0.234,0.406,0.372,0.360,0.189,0.161,�k,1.0,��
2016/09/15,22:50,0.387,0.232,0.403,0.373,0.364,0.191,0.161,-,CALM,��
2016/09/15,23:00,0.384,0.234,0.408,0.371,0.358,0.190,0.163,�k�k��,0.7,��
2016/09/15,23:10,0.387,0.234,0.403,0.376,0.363,0.189,0.160,�k�k��,0.7,��
2016/09/15,23:20,0.386,0.232,0.406,0.372,0.359,0.191,0.161,-,CALM,��
2016/09/15,23:30,0.383,0.233,0.407,0.371,0.359,0.190,0.161,�k,1.0,��
2016/09/15,23:40,0.386,0.233,0.403,0.374,0.363,0.190,0.162,�k�k��,0.7,��
2016/09/15,23:50,0.382,0.233,0.407,0.371,0.361,0.190,0.161,-,CALM,��
